VR2R-13 Weather Reports


Display with metric or nautical units.
time (UTC)temp
F
wind
direction
speed
MPH
gust
MPH
rain 1hr
in
rain 24hr
in
rain mn
in
humidity
%
barometer
mb
20260904161102 69 61 2.0 5.0 0.00 0.00 0.00 91 909.6
20260904161100 69 66 2.0 5.0 0.00 0.00 0.00 91 909.7
20260904155100 69 62 0.0 3.0 0.00 0.00 0.00 91 909.7
20260904153100 70 56 1.0 3.0 0.00 0.00 0.00 90 909.8
20260904152559 70 52 2.0 3.0 0.00 0.00 0.00 90 909.8
20260904152301 70 42 2.0 2.0 0.00 0.00 0.00 90 909.8
20260904152059 70 47 2.0 2.0 0.00 0.00 0.00 90 909.8
20260904151701 70 49 0.0 0.0 0.00 0.00 0.00 90 909.8
20260904151559 70 47 0.0 3.0 0.00 0.00 0.00 90 909.8
20260904151101 70 55 2.0 3.0 0.00 0.00 0.00 90 909.8
20260904151059 70 58 2.0 3.0 0.00 0.00 0.00 90 909.8
20260904150559 70 66 1.0 2.0 0.00 0.00 0.00 90 909.8
20260904150501 70 63 1.0 1.0 0.00 0.00 0.00 90 909.9
20260904150059 70 121 0.0 3.0 0.00 0.00 0.00 90 909.9
20260904145901 70 165 1.0 6.0 0.00 0.00 0.00 90 909.8
20260904145559 70 179 1.0 6.0 0.00 0.00 0.00 90 909.9
20260904145301 70 102 2.0 7.0 0.00 0.00 0.00 90 909.9
20260904145059 70 72 4.0 7.0 0.00 0.00 0.00 90 909.9
20260904144701 70 65 5.0 7.0 0.00 0.00 0.00 90 909.9
20260904144559 70 45 3.0 7.0 0.00 0.00 0.00 90 909.8
20260904144059 70 80 5.0 7.0 0.00 0.00 0.00 90 909.9
20260904143500 70 57 3.0 6.0 0.00 0.00 0.00 90 910.0
20260904143059 70 43 1.0 4.0 0.00 0.00 0.00 91 910.0
20260904142059 69 26 1.0 3.0 0.00 0.00 0.00 90 910.0
20260904141700 69 40 0.0 1.0 0.00 0.00 0.00 90 910.0
20260904141559 69 43 0.0 1.0 0.00 0.00 0.00 90 910.0
20260904141101 69 109 0.0 1.0 0.00 0.00 0.00 91 909.9
20260904141059 69 108 0.0 1.0 0.00 0.00 0.00 91 909.9
20260904140559 69 32 1.0 1.0 0.00 0.00 0.00 91 909.9
20260904140500 69 41 1.0 1.0 0.00 0.00 0.00 91 909.9
20260904140059 69 244 0.0 0.0 0.00 0.00 0.00 92 909.8
20260904135900 69 200 0.0 1.0 0.00 0.00 0.00 92 909.9
20260904135559 69 307 0.0 1.0 0.00 0.00 0.00 92 909.8
20260904135300 69 303 1.0 1.0 0.00 0.00 0.00 92 909.8
20260904135059 69 290 1.0 1.0 0.00 0.00 0.00 92 909.8
20260904134700 69 10 1.0 1.0 0.00 0.00 0.00 93 909.8
20260904134559 69 10 1.0 1.0 0.00 0.00 0.00 93 909.8
20260904134102 69 18 0.0 1.0 0.00 0.00 0.00 93 909.7
20260904134100 69 17 0.0 1.0 0.00 0.00 0.00 93 909.7
20260904133558 69 46 1.0 1.0 0.00 0.00 0.00 93 909.7
20260904133058 69 41 1.0 4.0 0.00 0.00 0.00 92 909.7
20260904132900 69 45 1.0 4.0 0.00 0.00 0.00 92 909.6
20260904132559 69 73 2.0 4.0 0.00 0.00 0.00 91 909.7
20260904132300 69 25 1.0 2.0 0.00 0.00 0.00 91 909.7
20260904132058 69 24 2.0 2.0 0.00 0.00 0.00 91 909.7
20260904131700 69 355 0.0 2.0 0.00 0.00 0.00 91 909.6
20260904131558 69 348 2.0 2.0 0.00 0.00 0.00 91 909.6
20260904131100 69 19 0.0 1.0 0.00 0.00 0.00 92 909.6
20260904131058 69 18 0.0 1.0 0.00 0.00 0.00 92 909.6
20260904130558 69 36 1.0 2.0 0.00 0.00 0.00 92 909.5
20260904130500 69 26 0.0 2.0 0.00 0.00 0.00 92 909.5
20260904130058 69 24 1.0 2.0 0.00 0.00 0.00 93 909.4
20260904125900 68 47 2.0 2.0 0.00 0.00 0.00 93 909.4
20260904124600 67 35 0.0 0.0 0.00 0.00 0.00 95 909.4
20260904123058 68 347 0.0 0.0 0.00 0.00 0.00 95 909.1
20260904122859 68 348 0.0 1.0 0.00 0.00 0.00 96 909.0
20260904122259 68 55 0.0 0.0 0.00 0.00 0.00 96 908.9
20260904121600 68 278 0.0 0.0 0.00 0.00 0.00 96 908.9
20260904121102 68 217 0.0 1.0 0.00 0.00 0.00 96 908.9
20260904121100 68 219 0.0 1.0 0.00 0.00 0.00 96 908.9
20260904120058 68 205 1.0 2.0 0.00 0.00 0.00 96 908.7
20260904115859 68 206 0.0 2.0 0.00 0.00 0.00 97 908.7
20260904115259 68 197 0.0 1.0 0.00 0.00 0.00 96 908.7
20260904114659 68 205 0.0 1.0 0.00 0.00 0.00 96 908.6
20260904114559 68 163 0.0 1.0 0.00 0.00 0.00 96 908.6
20260904114059 68 192 1.0 2.0 0.00 0.00 0.00 96 908.6
20260904113558 68 192 0.0 2.0 0.00 0.00 0.00 96 908.4
20260904113058 68 220 2.0 2.0 0.00 0.00 0.00 96 908.4
20260904112859 68 238 2.0 2.0 0.00 0.00 0.00 96 908.4
20260904112259 68 222 1.0 3.0 0.00 0.00 0.00 95 908.4
20260904112057 68 245 0.0 1.0 0.00 0.00 0.00 95 908.4
20260904111659 68 205 1.0 2.0 0.00 0.00 0.00 95 908.4
20260904111558 68 198 0.0 1.0 0.00 0.00 0.00 95 908.3
20260904111059 68 221 0.0 1.0 0.00 0.00 0.00 94 908.3
20260904110557 68 260 0.0 2.0 0.00 0.00 0.00 94 908.4
20260904110500 68 264 0.0 0.0 0.00 0.00 0.00 94 908.3
20260904104659 68 268 1.0 2.0 0.00 0.00 0.00 94 908.1
20260904104557 68 264 1.0 2.0 0.00 0.00 0.00 94 908.1
20260904103557 68 258 1.0 3.0 0.00 0.00 0.00 94 907.9
20260904103458 68 268 1.0 3.0 0.00 0.00 0.00 94 907.9
20260904103057 68 264 2.0 3.0 0.00 0.00 0.00 94 907.9
20260904102900 68 256 2.0 4.0 0.00 0.00 0.00 94 907.8
20260904102557 68 261 2.0 4.0 0.00 0.00 0.00 94 907.8
20260904102258 68 259 2.0 4.0 0.00 0.00 0.00 94 907.8
20260904101658 68 250 2.0 4.0 0.00 0.00 0.00 94 907.8
20260904101557 68 272 3.0 4.0 0.00 0.00 0.00 94 907.8
20260904101059 68 246 3.0 5.0 0.00 0.00 0.00 94 907.8
20260904101057 68 231 3.0 5.0 0.00 0.00 0.00 94 907.8
20260904100557 68 261 2.0 4.0 0.00 0.00 0.00 95 907.8
20260904100458 68 267 2.0 4.0 0.00 0.00 0.00 95 907.8
20260904095858 68 266 3.0 4.0 0.00 0.00 0.00 95 907.7
20260904095557 68 274 2.0 4.0 0.00 0.00 0.00 95 907.7
20260904095258 68 217 2.0 3.0 0.00 0.00 0.00 95 907.6
20260904095057 68 272 1.0 3.0 0.00 0.00 0.00 95 907.7
20260904094658 68 233 2.0 3.0 0.00 0.00 0.00 95 907.6
20260904094558 68 239 2.0 3.0 0.00 0.00 0.00 96 907.7
20260904094058 68 228 2.0 4.0 0.00 0.00 0.00 95 907.7
20260904093458 68 218 2.0 3.0 0.00 0.00 0.00 95 907.6
20260904093057 68 226 0.0 2.0 0.00 0.00 0.00 96 907.6
20260904092858 68 224 2.0 4.0 0.00 0.00 0.00 95 907.6
20260904092557 69 269 2.0 4.0 0.00 0.00 0.00 95 907.5
20260904092258 69 224 1.0 3.0 0.00 0.00 0.00 95 907.5
20260904092057 69 246 1.0 3.0 0.00 0.00 0.00 95 907.5
20260904091658 69 232 1.0 3.0 0.00 0.00 0.00 95 907.5
20260904091558 69 262 1.0 3.0 0.00 0.00 0.00 95 907.5
20260904091058 69 206 2.0 4.0 0.00 0.00 0.00 95 907.4
20260904091056 69 199 2.0 4.0 0.00 0.00 0.00 95 907.5
20260904090557 69 220 2.0 4.0 0.00 0.00 0.00 95 907.4
20260904090458 69 254 2.0 4.0 0.00 0.00 0.00 95 907.4
20260904090056 69 277 2.0 4.0 0.00 0.00 0.00 95 907.3
20260904085556 69 297 3.0 5.0 0.00 0.00 0.00 95 907.3
20260904085258 69 258 4.0 5.0 0.00 0.00 0.00 95 907.3
20260904085056 69 251 1.0 5.0 0.00 0.00 0.00 95 907.2
20260904084658 69 244 3.0 6.0 0.00 0.00 0.00 95 907.2
20260904084556 69 226 3.0 6.0 0.00 0.00 0.00 95 907.2
20260904084058 69 230 3.0 6.0 0.00 0.00 0.00 94 907.2
20260904083556 69 211 3.0 5.0 0.00 0.00 0.00 94 907.2
20260904083458 69 259 3.0 5.0 0.00 0.00 0.00 94 907.2
20260904083056 69 227 2.0 6.0 0.00 0.00 0.00 94 907.1
20260904082858 68 234 3.0 7.0 0.00 0.00 0.00 94 907.1
20260904082556 68 230 3.0 7.0 0.00 0.00 0.00 93 907.1
20260904082257 68 251 5.0 7.0 0.00 0.00 0.00 93 907.0
20260904081658 69 219 1.0 6.0 0.00 0.00 0.00 93 907.1
20260904081556 69 230 4.0 6.0 0.00 0.00 0.00 93 907.0
20260904081058 69 225 2.0 3.0 0.00 0.00 0.00 93 907.0
20260904081056 69 222 2.0 3.0 0.00 0.00 0.00 93 907.0
20260904080556 69 203 1.0 2.0 0.00 0.00 0.00 92 907.0
20260904080458 69 207 0.0 2.0 0.00 0.00 0.00 92 907.0
20260904080056 70 220 2.0 3.0 0.00 0.00 0.00 92 907.1
20260904075857 70 207 1.0 2.0 0.00 0.00 0.00 92 907.0
20260904075556 70 208 0.0 2.0 0.00 0.00 0.00 92 907.0
20260904075257 70 258 1.0 3.0 0.00 0.00 0.00 92 907.0
20260904075056 71 225 1.0 3.0 0.00 0.00 0.00 91 907.0
20260904074700 71 175 1.0 3.0 0.00 0.00 0.00 91 906.9
20260904074556 71 221 1.0 3.0 0.00 0.00 0.00 91 907.0
20260904074056 71 220 2.0 3.0 0.00 0.00 0.00 91 906.9
20260904073556 72 225 0.0 0.0 0.00 0.00 0.00 91 906.9
20260904073457 72 193 1.0 6.0 0.00 0.00 0.00 90 906.9
20260904073056 72 180 1.0 6.0 0.00 0.00 0.00 91 907.0
20260904072857 72 147 2.0 6.0 0.00 0.00 0.00 91 907.0
20260904072556 72 118 2.0 6.0 0.00 0.00 0.00 91 907.0
20260904072257 72 194 1.0 3.0 0.00 0.00 0.00 91 907.0
20260904072056 72 166 0.0 1.0 0.00 0.00 0.00 91 907.0
20260904071657 72 320 0.0 1.0 0.00 0.00 0.00 91 906.9
20260904071556 72 115 0.0 0.0 0.00 0.00 0.00 91 906.9
20260904071057 71 138 0.0 0.0 0.00 0.00 0.00 92 906.9
20260904071055 71 156 0.0 0.0 0.00 0.00 0.00 92 906.9
20260904065556 72 243 0.0 2.0 0.00 0.00 0.00 91 906.9
20260904064057 71 222 1.0 4.0 0.00 0.00 0.00 91 906.9
20260904064055 71 224 1.0 4.0 0.00 0.00 0.00 91 906.9
20260904063555 71 296 2.0 4.0 0.00 0.00 0.00 92 906.9
20260904063457 71 249 2.0 4.0 0.00 0.00 0.00 92 906.9
20260904063055 71 254 1.0 4.0 0.00 0.00 0.00 92 906.9
20260904062857 71 288 1.0 6.0 0.00 0.00 0.00 92 906.8
20260904062555 71 277 1.0 7.0 0.00 0.00 0.00 92 906.9
20260904062256 71 178 1.0 7.0 0.00 0.00 0.00 92 906.9
20260904062055 71 290 3.0 7.0 0.00 0.00 0.00 92 906.9
20260904061656 71 280 2.0 7.0 0.00 0.00 0.00 93 906.9
20260904061555 71 293 2.0 7.0 0.00 0.00 0.00 93 906.8
20260904061057 71 265 2.0 6.0 0.00 0.00 0.00 93 906.8
20260904061055 71 269 2.0 6.0 0.00 0.00 0.00 93 906.8
20260904060555 71 229 3.0 6.0 0.00 0.00 0.00 92 906.9
20260904060456 71 257 3.0 6.0 0.00 0.00 0.00 92 906.8
20260904060055 72 249 3.0 5.0 0.00 0.00 0.00 92 906.8
20260904055856 72 264 1.0 4.0 0.00 0.00 0.00 92 906.8
20260904055555 72 291 1.0 4.0 0.00 0.00 0.00 93 906.9
20260904055256 71 263 3.0 7.0 0.00 0.00 0.00 92 906.8
20260904055055 71 281 3.0 7.0 0.00 0.00 0.00 93 906.9
20260904054656 71 258 4.0 7.0 0.00 0.00 0.00 93 906.8
20260904054555 70 238 4.0 9.0 0.00 0.00 0.00 92 906.8
20260904054058 71 265 4.0 10.0 0.00 0.00 0.00 91 906.9
20260904054056 71 258 4.0 10.0 0.00 0.00 0.00 91 906.9
20260904053557 71 215 6.0 10.0 0.00 0.00 0.00 91 906.9
20260904053456 71 221 6.0 10.0 0.00 0.00 0.00 90 906.9
20260904053055 71 275 0.0 6.0 0.00 0.00 0.00 92 906.9
20260904052856 71 259 1.0 7.0 0.00 0.00 0.00 92 906.9
20260904052555 71 219 3.0 7.0 0.00 0.00 0.00 93 906.9
20260904052256 71 289 3.0 7.0 0.00 0.00 0.00 93 906.9
20260904052055 71 219 3.0 7.0 0.00 0.00 0.00 93 906.9
20260904051656 71 240 3.0 5.0 0.00 0.00 0.00 92 906.9
20260904051555 71 262 4.0 5.0 0.00 0.00 0.00 92 907.0
20260904051056 71 292 2.0 4.0 0.00 0.00 0.00 92 907.0
20260904050456 71 258 3.0 6.0 0.00 0.00 0.00 91 907.1
20260904050055 72 221 1.0 5.0 0.00 0.00 0.00 91 907.1
20260904045856 72 204 5.0 8.0 0.00 0.00 0.00 92 907.1
20260904045555 71 237 1.0 5.0 0.00 0.00 0.00 92 907.2
20260904045256 71 231 4.0 5.0 0.00 0.00 0.00 91 907.1
20260904045056 71 266 3.0 5.0 0.00 0.00 0.00 91 907.2
20260904044656 72 296 1.0 5.0 0.00 0.00 0.00 92 907.2
20260904044554 71 256 0.0 4.0 0.00 0.00 0.00 92 907.2
20260904044056 71 225 3.0 8.0 0.00 0.00 0.00 92 907.2
20260904044054 71 241 3.0 8.0 0.00 0.00 0.00 92 907.2
20260904043554 71 240 4.0 8.0 0.00 0.00 0.00 91 907.3
20260904043456 71 241 5.0 8.0 0.00 0.00 0.00 92 907.3
20260904043054 72 231 4.0 7.0 0.00 0.00 0.00 91 907.3
20260904042855 71 182 1.0 6.0 0.00 0.00 0.00 92 907.3
20260904042554 71 38 3.0 6.0 0.00 0.00 0.00 92 907.4
20260904042256 71 240 1.0 3.0 0.00 0.00 0.00 91 907.4
20260904042054 71 231 2.0 7.0 0.00 0.00 0.00 91 907.4
20260904041656 71 259 3.0 7.0 0.00 0.00 0.00 90 907.4
20260904041554 72 193 3.0 7.0 0.00 0.00 0.00 90 907.4
20260904041056 72 293 4.0 7.0 0.00 0.00 0.00 91 907.4
20260904041054 72 281 4.0 7.0 0.00 0.00 0.00 91 907.3
20260904040554 72 247 3.0 6.0 0.00 0.00 0.00 91 907.4
20260904040455 72 212 3.0 5.0 0.00 0.00 0.00 91 907.4
20260904040054 72 238 1.0 5.0 0.00 0.00 0.00 91 907.4
20260904035855 72 283 2.0 5.0 0.00 0.00 0.00 91 907.4
20260904035554 71 244 3.0 5.0 0.00 0.00 0.00 92 907.4
20260904035054 71 282 5.0 7.0 0.00 0.00 0.00 92 907.4
20260904030554 70 268 0.0 4.0 0.00 0.00 0.00 93 907.7
20260904030054 70 267 1.0 3.0 0.00 0.00 0.00 94 907.5
20260904025855 70 238 0.0 2.0 0.00 0.00 0.00 93 907.5
20260904025554 70 260 3.0 6.0 0.00 0.00 0.00 94 907.5
20260904025255 70 291 3.0 5.0 0.00 0.00 0.00 93 907.5
20260904025053 70 268 2.0 5.0 0.00 0.00 0.00 93 907.5
20260904024655 69 277 1.0 6.0 0.00 0.00 0.00 94 907.6
20260904024553 69 258 2.0 6.0 0.00 0.00 0.00 94 907.6
20260904024055 70 270 2.0 6.0 0.00 0.00 0.00 93 907.6
20260904024053 70 268 2.0 6.0 0.00 0.00 0.00 93 907.6
20260904023553 70 218 3.0 6.0 0.00 0.00 0.00 92 907.6
20260904023455 70 233 4.0 6.0 0.00 0.00 0.00 92 907.6
20260904023053 70 215 2.0 6.0 0.00 0.00 0.00 92 907.7
20260904022855 70 233 3.0 6.0 0.00 0.00 0.00 91 907.7
20260904022553 70 115 3.0 6.0 0.00 0.00 0.00 92 907.6
20260904022255 71 264 2.0 6.0 0.00 0.00 0.00 92 907.5
20260904022053 71 258 1.0 4.0 0.00 0.00 0.00 93 907.6
20260904021654 70 280 1.0 4.0 0.00 0.00 0.00 92 907.6
20260904020553 71 206 1.0 3.0 0.00 0.00 0.00 90 907.4
20260904020454 71 204 0.0 2.0 0.00 0.00 0.00 91 907.4
20260904020053 71 177 0.0 1.0 0.00 0.00 0.00 91 907.3
20260904015854 71 270 0.0 1.0 0.00 0.00 0.00 90 907.3
20260904015553 71 58 0.0 1.0 0.00 0.00 0.00 90 907.3
20260904015254 71 253 2.0 4.0 0.00 0.00 0.00 92 907.3
20260904015053 71 286 1.0 4.0 0.00 0.00 0.00 91 907.3
20260904014654 71 206 1.0 5.0 0.00 0.00 0.00 91 907.2
20260904014553 71 262 1.0 4.0 0.00 0.00 0.00 91 907.3
20260904014055 72 211 0.0 0.0 0.00 0.00 0.00 91 907.2
20260904014053 72 198 0.0 0.0 0.00 0.00 0.00 91 907.2
20260904013553 72 112 0.0 3.0 0.00 0.00 0.00 92 907.3
20260904013454 72 191 1.0 2.0 0.00 0.00 0.00 92 907.3
20260904013053 72 93 0.0 3.0 0.00 0.00 0.00 90 907.3
20260904012854 72 150 0.0 3.0 0.00 0.00 0.00 91 907.3
20260904012255 72 83 1.0 3.0 0.00 0.00 0.00 90 907.3
20260904012053 72 129 0.0 2.0 0.00 0.00 0.00 91 907.3
20260904011654 71 295 0.0 0.0 0.00 0.00 0.00 90 907.2
20260904011553 72 212 1.0 5.0 0.00 0.00 0.00 90 907.2
20260904011054 72 202 0.0 2.0 0.00 0.00 0.00 91 907.2
20260904010554 70 200 0.0 0.0 0.00 0.00 0.00 92 907.1
20260904010454 70 263 1.0 3.0 0.00 0.00 0.00 92 907.2
20260904010053 70 267 1.0 4.0 0.00 0.00 0.00 92 907.1
20260904005856 70 245 1.0 4.0 0.00 0.00 0.00 92 907.1
20260904005552 69 219 1.0 3.0 0.00 0.00 0.00 92 907.0
20260904005254 69 184 1.0 3.0 0.00 0.00 0.00 92 907.1
20260904005053 69 238 0.0 3.0 0.00 0.00 0.00 93 907.1
20260904004654 70 272 0.0 3.0 0.00 0.00 0.00 92 907.0
20260904004553 70 238 1.0 4.0 0.00 0.00 0.00 91 907.0
20260904004054 71 225 2.0 5.0 0.00 0.00 0.00 92 906.9
20260904003552 71 207 3.0 5.0 0.00 0.00 0.00 92 906.9
20260904003454 71 245 3.0 5.0 0.00 0.00 0.00 92 906.8
20260904003052 71 243 2.0 6.0 0.00 0.00 0.00 92 906.8
20260904002854 71 195 2.0 6.0 0.00 0.00 0.00 92 906.8
20260904002553 70 197 3.0 6.0 0.00 0.00 0.00 92 906.8
20260904002254 70 213 3.0 6.0 0.00 0.00 0.00 92 906.8
20260904002052 70 227 3.0 6.0 0.00 0.00 0.00 92 906.8
20260904001654 70 170 3.0 6.0 0.00 0.00 0.00 92 906.8
20260904001552 70 215 3.0 6.0 0.00 0.00 0.00 92 906.7
20260904001054 70 184 3.0 6.0 0.00 0.00 0.00 93 906.7
20260904001052 70 188 3.0 6.0 0.00 0.00 0.00 93 906.7
20260904000552 69 180 4.0 5.0 0.00 0.00 0.00 93 906.6
20260904000052 69 219 2.0 5.0 0.00 0.00 0.00 93 906.6
20260903235853 68 222 0.0 3.0 0.00 0.00 0.00 93 906.6
20260903235552 68 218 2.0 4.0 0.00 0.00 0.00 94 906.6
20260903235254 68 197 3.0 4.0 0.00 0.00 0.00 93 906.6
20260903235052 68 262 2.0 4.0 0.00 0.00 0.00 93 906.6
20260903234653 68 262 2.0 4.0 0.00 0.00 0.00 94 906.5
20260903234552 68 272 2.0 3.0 0.00 0.00 0.00 94 906.6
20260903234054 68 270 1.0 3.0 0.00 0.00 0.00 93 906.6
20260903234052 68 275 1.0 3.0 0.00 0.00 0.00 93 906.5
20260903233552 68 233 2.0 4.0 0.00 0.00 0.00 93 906.5
20260903233453 68 252 2.0 4.0 0.00 0.00 0.00 93 906.5
20260903233052 68 265 2.0 4.0 0.00 0.00 0.00 94 906.4
20260903232853 68 217 2.0 4.0 0.00 0.00 0.00 93 906.3
20260903232552 68 215 2.0 4.0 0.00 0.00 0.00 93 906.3
20260903232254 68 219 3.0 4.0 0.00 0.00 0.00 93 906.2
20260903232052 68 226 2.0 3.0 0.00 0.00 0.00 94 906.3
20260903231653 68 247 2.0 4.0 0.00 0.00 0.00 94 906.2
20260903231552 68 231 2.0 4.0 0.00 0.00 0.00 94 906.2
20260903231054 67 257 2.0 4.0 0.00 0.00 0.00 94 906.2
20260903231052 67 262 2.0 4.0 0.00 0.00 0.00 94 906.1
20260903230552 67 270 2.0 4.0 0.00 0.00 0.00 94 906.1
20260903230453 67 265 2.0 4.0 0.00 0.00 0.00 94 906.0
20260903230052 67 257 2.0 4.0 0.00 0.00 0.00 94 905.9
20260903225853 67 230 2.0 4.0 0.00 0.00 0.00 94 905.9
20260903225552 67 269 1.0 3.0 0.00 0.00 0.00 94 905.9
20260903225253 67 261 3.0 4.0 0.00 0.00 0.00 94 905.9
20260903225052 67 258 3.0 4.0 0.00 0.00 0.00 94 905.8
20260903224653 67 261 3.0 4.0 0.00 0.00 0.00 94 905.8
20260903224552 67 250 2.0 4.0 0.00 0.00 0.00 94 905.8
20260903224053 67 234 2.0 4.0 0.00 0.00 0.00 94 905.8
20260903224051 67 225 2.0 4.0 0.00 0.00 0.00 94 905.8
20260903223552 67 228 3.0 5.0 0.00 0.00 0.00 94 905.7
20260903223453 67 224 3.0 5.0 0.00 0.00 0.00 94 905.7
20260903223051 67 225 3.0 5.0 0.00 0.00 0.00 94 905.7
20260903222853 67 245 3.0 4.0 0.00 0.00 0.00 94 905.6
20260903222551 67 258 2.0 4.0 0.00 0.00 0.00 94 905.5
20260903222253 67 223 3.0 4.0 0.00 0.00 0.00 94 905.6
20260903222052 67 256 2.0 4.0 0.00 0.00 0.00 94 905.6
20260903221653 67 202 3.0 4.0 0.00 0.00 0.00 94 905.5
20260903221551 67 206 2.0 4.0 0.00 0.00 0.00 94 905.6
20260903221053 67 234 2.0 3.0 0.00 0.00 0.00 94 905.5
20260903221051 67 230 2.0 3.0 0.00 0.00 0.00 94 905.5
20260903220551 67 201 2.0 3.0 0.00 0.00 0.00 94 905.5
20260903220453 67 212 2.0 3.0 0.00 0.00 0.00 94 905.5
20260903215853 67 204 1.0 2.0 0.00 0.00 0.00 94 905.5
20260903215551 67 258 1.0 2.0 0.00 0.00 0.00 94 905.5
20260903215252 67 223 1.0 2.0 0.00 0.00 0.00 94 905.5
20260903215052 67 203 1.0 2.0 0.00 0.00 0.00 94 905.5
20260903214652 67 207 1.0 2.0 0.00 0.00 0.00 94 905.4
20260903214551 67 211 1.0 2.0 0.00 0.00 0.00 94 905.3
20260903214053 67 269 0.0 2.0 0.00 0.00 0.00 94 905.4
20260903214051 67 270 0.0 2.0 0.00 0.00 0.00 94 905.3
20260903213551 67 207 0.0 2.0 0.00 0.00 0.00 94 905.3
20260903213452 67 140 1.0 2.0 0.00 0.00 0.00 94 905.3
20260903213051 67 190 1.0 2.0 0.00 0.00 0.00 94 905.3
20260903212852 67 228 1.0 2.0 0.00 0.00 0.00 94 905.3
20260903212551 67 203 1.0 2.0 0.00 0.00 0.00 94 905.3
20260903212252 67 203 1.0 2.0 0.00 0.00 0.00 94 905.3
20260903212051 67 212 0.0 2.0 0.00 0.00 0.00 94 905.3
20260903211652 67 199 2.0 2.0 0.00 0.00 0.00 94 905.3
20260903211551 67 204 1.0 2.0 0.00 0.00 0.00 94 905.2
20260903211052 67 204 1.0 1.0 0.00 0.00 0.00 94 905.2
20260903210551 67 263 0.0 0.0 0.00 0.00 0.00 95 905.2
20260903210452 67 265 0.0 0.0 0.00 0.00 0.00 95 905.2
20260903210051 67 261 0.0 0.0 0.00 0.00 0.00 95 905.2
20260903205852 67 247 0.0 0.0 0.00 0.00 0.00 95 905.2
20260903205551 67 300 0.0 1.0 0.00 0.00 0.00 95 905.2
20260903205051 67 312 0.0 3.0 0.00 0.00 0.00 95 905.1
20260903204652 67 318 2.0 5.0 0.00 0.00 0.00 94 905.1
20260903204551 67 297 2.0 5.0 0.00 0.00 0.00 94 905.1
20260903204053 67 326 2.0 5.0 0.00 0.00 0.00 94 905.0
20260903204051 67 322 2.0 5.0 0.00 0.00 0.00 94 905.1
20260903203551 67 281 3.0 5.0 0.00 0.00 0.00 94 905.1
20260903203452 67 277 3.0 5.0 0.00 0.00 0.00 94 905.1
20260903203051 67 306 3.0 5.0 0.00 0.00 0.00 94 905.1
20260903202852 67 314 2.0 4.0 0.00 0.00 0.00 94 905.1
20260903202550 67 322 2.0 4.0 0.00 0.00 0.00 94 905.0
20260903202254 67 295 0.0 0.0 0.00 0.00 0.00 94 905.0
20260903202051 67 303 0.0 2.0 0.00 0.00 0.00 94 905.0
20260903201653 67 306 2.0 4.0 0.00 0.00 0.00 94 905.0
20260903201550 67 291 2.0 4.0 0.00 0.00 0.00 94 905.0
20260903201052 67 303 3.0 4.0 0.00 0.00 0.00 94 904.9
20260903201050 67 287 3.0 4.0 0.00 0.00 0.00 94 904.9
20260903200550 67 360 2.0 8.0 0.00 0.00 0.00 94 905.0
20260903200452 67 318 2.0 8.0 0.00 0.00 0.00 95 905.0
20260903200051 66 354 3.0 8.0 0.00 0.00 0.00 94 905.1
20260903195852 66 2 5.0 8.0 0.00 0.00 0.00 94 905.1
20260903195550 67 329 4.0 7.0 0.00 0.00 0.00 94 905.0
20260903195252 67 323 3.0 6.0 0.00 0.00 0.00 94 905.0
20260903195050 67 318 2.0 7.0 0.00 0.00 0.00 94 904.9
20260903194651 67 327 2.0 7.0 0.00 0.00 0.00 94 905.0
20260903194550 67 313 3.0 7.0 0.00 0.00 0.00 94 905.0
20260903194052 67 306 3.0 8.0 0.00 0.00 0.00 95 905.0
20260903194050 67 302 3.0 8.0 0.00 0.00 0.00 95 905.0
20260903193550 67 301 3.0 9.0 0.00 0.00 0.00 95 905.0
20260903193451 66 344 4.0 9.0 0.00 0.00 0.00 95 905.0
20260903193050 66 24 5.0 9.0 0.00 0.00 0.00 95 904.9
20260903192851 66 345 5.0 8.0 0.00 0.00 0.00 95 905.0
20260903192550 65 360 6.0 9.0 0.00 0.00 0.00 95 905.0
20260903192251 65 28 4.0 9.0 0.00 0.00 0.00 95 905.0
20260903192050 65 342 5.0 9.0 0.00 0.00 0.00 95 905.0
20260903191651 65 269 5.0 10.0 0.00 0.00 0.00 96 905.0
20260903191550 65 345 5.0 11.0 0.00 0.00 0.00 96 904.9
20260903191052 65 322 6.0 12.0 0.00 0.00 0.00 96 904.9
20260903191050 65 302 6.0 12.0 0.00 0.00 0.00 96 904.9
20260903190550 65 307 7.0 14.0 0.00 0.00 0.00 96 904.8
20260903190451 65 285 5.0 14.0 0.00 0.00 0.00 96 904.9
20260903190050 65 356 8.0 14.0 0.00 0.00 0.00 96 904.9
20260903185851 65 329 5.0 9.0 0.00 0.00 0.00 96 904.9
20260903185550 65 2 5.0 9.0 0.00 0.00 0.00 96 904.8
20260903185251 65 323 5.0 9.0 0.00 0.00 0.00 96 904.7
20260903185050 65 360 4.0 9.0 0.00 0.00 0.00 96 904.7
20260903184651 65 6 5.0 10.0 0.00 0.00 0.00 96 904.8
20260903184550 65 353 5.0 10.0 0.00 0.00 0.00 96 904.8
20260903184059 65 350 6.0 10.0 0.00 0.00 0.00 96 904.7
20260903184051 65 7 6.0 10.0 0.00 0.00 0.00 96 904.7
20260903183550 65 353 5.0 11.0 0.00 0.00 0.00 96 904.8
20260903183451 65 290 6.0 11.0 0.00 0.00 0.00 96 904.8
20260903183050 65 280 5.0 11.0 0.00 0.00 0.00 96 904.8
20260903182851 65 292 7.0 11.0 0.00 0.00 0.00 96 904.7
20260903182550 65 319 3.0 11.0 0.00 0.00 0.00 96 904.7
20260903182251 65 314 6.0 11.0 0.00 0.00 0.00 96 904.8
20260903182049 65 313 7.0 11.0 0.00 0.00 0.00 96 904.7
20260903181651 65 360 5.0 9.0 0.00 0.00 0.00 96 904.8
20260903181549 65 323 3.0 9.0 0.00 0.00 0.00 96 904.8
20260903181051 65 314 5.0 11.0 0.00 0.00 0.00 96 904.8
20260903180549 65 6 6.0 11.0 0.00 0.00 0.00 96 904.8
20260903180451 65 348 5.0 11.0 0.00 0.00 0.00 96 904.9
20260903180050 65 330 5.0 11.0 0.00 0.00 0.00 96 904.8
20260903175851 65 319 4.0 9.0 0.00 0.00 0.00 96 904.8
20260903175549 65 343 4.0 9.0 0.00 0.00 0.00 96 904.8
20260903175251 66 304 5.0 9.0 0.00 0.00 0.00 96 904.9
20260903175049 66 342 4.0 9.0 0.00 0.00 0.00 96 904.8
20260903174651 65 21 5.0 10.0 0.00 0.00 0.00 96 904.8
20260903174549 65 296 5.0 10.0 0.00 0.00 0.00 96 904.8
20260903174051 65 328 5.0 10.0 0.00 0.00 0.00 96 904.8
20260903174049 65 4 5.0 10.0 0.00 0.00 0.00 96 904.8
20260903173549 65 335 4.0 8.0 0.00 0.00 0.00 96 904.9
20260903173450 65 295 4.0 8.0 0.00 0.00 0.00 96 904.9
20260903173049 66 121 2.0 8.0 0.00 0.00 0.00 96 904.8
20260903172850 66 35 3.0 8.0 0.00 0.00 0.00 96 905.0
20260903172549 66 344 3.0 8.0 0.00 0.00 0.00 96 904.9
20260903172251 66 327 2.0 11.0 0.00 0.00 0.00 96 904.9
20260903172049 66 310 3.0 11.0 0.00 0.00 0.00 96 904.9
20260903171650 66 245 4.0 11.0 0.00 0.00 0.00 96 904.9
20260903171549 66 13 3.0 11.0 0.00 0.00 0.00 96 904.9
20260903171051 66 286 3.0 9.0 0.00 0.00 0.00 96 904.9
20260903171049 66 312 3.0 9.0 0.00 0.00 0.00 96 904.9
20260903170549 66 308 3.0 9.0 0.00 0.00 0.00 96 904.9
20260903170450 66 266 4.0 9.0 0.00 0.00 0.00 96 904.9
20260903170049 66 346 3.0 8.0 0.00 0.00 0.00 96 904.8
20260903165850 66 300 3.0 11.0 0.00 0.00 0.00 96 904.8
20260903165549 66 28 3.0 11.0 0.00 0.00 0.00 96 904.8
20260903165250 66 301 2.0 10.0 0.00 0.00 0.00 96 904.8
20260903165049 66 154 3.0 10.0 0.00 0.00 0.00 96 904.8
20260903164650 66 266 3.0 10.0 0.00 0.00 0.00 96 904.8
20260903164549 66 140 3.0 10.0 0.00 0.00 0.00 96 904.9
20260903164050 66 267 1.0 5.0 0.00 0.00 0.00 96 904.9
20260903163549 66 353 3.0 8.0 0.00 0.00 0.00 96 904.9
20260903163450 66 156 2.0 9.0 0.00 0.00 0.00 96 904.9
20260903163049 66 165 2.0 11.0 0.00 0.00 0.00 96 904.9
20260903162850 66 177 3.0 11.0 0.00 0.00 0.00 96 904.9
20260903162549 66 80 4.0 11.0 0.00 0.00 0.00 96 904.9
20260903162250 66 266 6.0 11.0 0.00 0.00 0.00 96 904.9
20260903162049 66 284 2.0 9.0 0.00 0.00 0.00 96 904.8